Weather History for Flint, MI

Change the Weather History Date:

Tuesday, October 16, 2012

  Actual Average Record
Temperature  
Mean Temperature 46 °F 49 °F  
Max Temperature 59 °F 60 °F 87 °F (1938)
Min Temperature 32 °F 39 °F 25 °F (1991)
Degree Days  
Heating Degree Days 19 16  
Month to date heating degree days 229 213  
Since 1 July heating degree days 403 423  
Cooling Degree Days 0 0  
Month to date cooling degree days 2 2  
Year to date cooling degree days 855 528  
Moisture  
Dew Point 36 °F    
Average Humidity 68    
Maximum Humidity 92    
Minimum Humidity 43    
Precipitation  
Precipitation T in 0.07 in 1.90 in (2001)
Month to date precipitation 1.34 1.36  
Year to date precipitation 25.64 25.67  
Snow  
Snow 0.00 in 0.00 in T in (1977)
Month to date snowfall 0.0 0.1  
Since 1 July snowfall 0.0 0.1  
Since 1 September snowfall 0.0 0.1  
Snow Depth 0.00 in    
Sea Level Pressure  
Sea Level Pressure 29.90 in    
Wind  
Wind Speed 6 mph (SSW)    
Max Wind Speed 14 mph    
Max Gust Speed 20 mph    
Visibility 10 miles    
Events Rain    
T = Trace of Precipitation, MM = Missing Value Source: NWS Daily Summary

Daily Weather History Graph

Daily Weather History Graph

Search for Another Location

Airport:

Trip Planner

Search our weather history database for the weather conditions in past years. The results will help you decide how hot, cold, wet, or windy it might be!

Date:

Astronomy

Oct. 16, 2012 Rise Set
Actual Time 7:50 AM EDT 6:49 PM EDT
Civil Twilight 7:21 AM EDT 7:18 PM EDT
Nautical Twilight 6:48 AM EDT 7:51 PM EDT
Astronomical Twilight 6:15 AM EDT 8:24 PM EDT
Moon 9:15 AM EDT (10/16) 7:30 PM EDT (10/16)
Length of Visible Light 11h 56m
Length of Day
10h 59m
New Moon, 2% of the Moon is Illuminated
Oct 16
New Moon
Oct 21
First Quarter
Oct 29
Full
Nov 6
Last Quarter
Nov 13
New

Hourly Weather History & Observations

Time (EDT) Temp. Windchill Dew Point Humidity Pressure Visibility Wind Dir Wind Speed Gust Speed Precip Events Conditions
12:53 AM 46.0 °F 41.9 °F 35.1 °F 66% 29.96 in 10.0 mi NW 8.1 mph - N/A   Overcast
1:53 AM 45.0 °F 41.2 °F 35.1 °F 68% 29.97 in 10.0 mi WNW 6.9 mph - N/A   Overcast
2:53 AM 45.0 °F 41.8 °F 34.0 °F 65% 29.98 in 10.0 mi NW 5.8 mph - N/A   Overcast
3:53 AM 44.1 °F 41.5 °F 33.1 °F 65% 29.97 in 10.0 mi NW 4.6 mph - N/A   Overcast
4:53 AM 42.1 °F - 33.1 °F 70% 29.96 in 10.0 mi Calm Calm - N/A   Partly Cloudy
5:53 AM 36.0 °F 32.1 °F 32.0 °F 86% 29.98 in 10.0 mi West 4.6 mph - N/A   Clear
6:53 AM 35.1 °F - 32.0 °F 89% 29.99 in 10.0 mi Calm Calm - N/A   Clear
7:53 AM 33.8 °F - 30.2 °F 87% 29.97 in 10.0 mi Calm Calm - N/A   Clear
8:53 AM 36.0 °F - 33.1 °F 89% 29.99 in 10.0 mi Calm Calm - N/A   Clear
9:53 AM 44.1 °F 42.5 °F 37.0 °F 76% 30.00 in 10.0 mi WSW 3.5 mph - N/A   Clear
10:53 AM 48.0 °F - 36.0 °F 63% 30.00 in 10.0 mi Variable 5.8 mph - N/A   Partly Cloudy
11:53 AM 48.9 °F - 36.0 °F 61% 29.96 in 10.0 mi SSW 5.8 mph - N/A   Clear
12:53 PM 52.0 °F - 37.0 °F 57% 29.94 in 10.0 mi Variable 4.6 mph - N/A   Clear
1:53 PM 54.0 °F - 37.0 °F 53% 29.89 in 10.0 mi South 8.1 mph - N/A   Clear
2:53 PM 57.0 °F - 36.0 °F 45% 29.86 in 10.0 mi South 11.5 mph - N/A   Clear
3:53 PM 59.0 °F - 37.0 °F 44% 29.84 in 10.0 mi South 10.4 mph - N/A   Clear
4:53 PM 59.0 °F - 37.0 °F 44% 29.81 in 10.0 mi South 11.5 mph - N/A   Clear
5:53 PM 57.0 °F - 37.9 °F 49% 29.80 in 10.0 mi South 9.2 mph - N/A   Clear
6:53 PM 48.9 °F - 37.0 °F 64% 29.78 in 10.0 mi SSE 8.1 mph - N/A   Clear
7:53 PM 48.0 °F - 37.0 °F 66% 29.77 in 10.0 mi SE 8.1 mph - N/A   Clear
8:53 PM 46.9 °F - 37.9 °F 71% 29.76 in 10.0 mi SE 6.9 mph - N/A   Clear
9:53 PM 50.0 °F - 39.9 °F 68% 29.78 in 10.0 mi ESE 4.6 mph - 0.00 in Rain Light Rain
10:53 PM 50.0 °F - 42.1 °F 74% 29.76 in 10.0 mi SSE 8.1 mph - 0.00 in   Mostly Cloudy
11:53 PM 52.0 °F - 42.1 °F 69% 29.75 in 10.0 mi South 11.5 mph - N/A   Scattered Clouds